Language: 


Des rapports , des résumés tant et plus, au choix de chacun....


Données Historiques de Météogheer
Journalier Rapport pour Février 3, 2018 Unitée:  Métrique    Impériale   Les deux
Suivant Jour »
Journalier Hebdomadaire Mensuel Annuel Sur mesure
  Max: Min: Moyenne:
Température: 6.7 °C 1.9 °C 3.8 °C
Point de rosée: 7.0 °C 2.0 °C 3.6 °C
Humidité: 98% 86% 96%
Vent: 15.8km/h 0.0km/h 1.5km/h
Rafales: 17.2km/h - -
Vent- - SW
Pression: 1009.0 hPa 1003.9 hPa -
Pluie: 2.5 mm    
Historical Graphs
 
 
Données tabulaires pour Février 3, 2018
Heure Température Point de rosée Pression Vent Vent Rafales Humidité Pluie Taux (Horaire) Conditions
00:03 1.9 °C 2.0 °C 1009.0 hPa Calm     98% 0.0 mm
00:08 2.0 °C 2.0 °C 1009.0 hPa Calm     98% 0.0 mm
00:13 2.1 °C 2.0 °C 1009.0 hPa Calm     98% 0.0 mm
00:18 2.2 °C 2.0 °C 1009.0 hPa West 4.7 km/h 4.7 km/h 98% 0.0 mm
00:23 2.4 °C 3.0 °C 1009.0 hPa Calm   4.7 km/h 98% 0.0 mm
00:25 2.4 °C 3.0 °C 1009.0 hPa Calm   4.7 km/h 98% 0.0 mm
00:30 2.6 °C 3.0 °C 1009.0 hPa West 4.3 km/h 4.3 km/h 98% 0.0 mm
00:36 2.7 °C 3.0 °C 1009.0 hPa Calm   4.3 km/h 98% 0.0 mm
00:41 2.7 °C 3.0 °C 1009.0 hPa Calm   4.0 km/h 98% 0.0 mm
00:46 2.8 °C 3.0 °C 1009.0 hPa Calm   5.8 km/h 98% 0.0 mm
00:51 2.8 °C 3.0 °C 1009.0 hPa Calm   5.8 km/h 98% 0.0 mm
00:56 2.9 °C 3.0 °C 1009.0 hPa Calm   5.0 km/h 98% 0.0 mm
01:01 2.9 °C 3.0 °C 1009.0 hPa Calm   5.0 km/h 98% 0.0 mm
01:06 2.8 °C 3.0 °C 1009.0 hPa Calm     98% 0.0 mm
01:11 2.7 °C 3.0 °C 1009.0 hPa West 2.1 km/h 4.0 km/h 98% 0.0 mm
01:16 2.6 °C 3.0 °C 1009.0 hPa Calm   4.0 km/h 98% 0.0 mm
01:21 2.5 °C 3.0 °C 1009.0 hPa Calm     98% 0.0 mm
01:27 2.3 °C 3.0 °C 1009.0 hPa Calm     98% 0.0 mm
01:32 2.1 °C 2.0 °C 1009.0 hPa West 4.0 km/h 4.0 km/h 98% 0.0 mm
01:37 2.1 °C 2.0 °C 1009.0 hPa Calm   6.9 km/h 98% 0.0 mm
01:42 2.2 °C 2.0 °C 1009.0 hPa West 5.5 km/h 6.9 km/h 98% 0.0 mm
01:47 2.3 °C 3.0 °C 1009.0 hPa Calm   6.4 km/h 98% 0.0 mm
01:52 2.2 °C 2.0 °C 1009.0 hPa Calm   6.4 km/h 98% 0.0 mm
01:57 2.1 °C 2.0 °C 1009.0 hPa Calm   1.8 km/h 98% 0.0 mm
02:02 2.0 °C 2.0 °C 1009.0 hPa Calm     98% 0.0 mm
02:07 2.1 °C 2.0 °C 1009.0 hPa Calm   1.4 km/h 98% 0.0 mm
02:12 2.1 °C 2.0 °C 1009.0 hPa Calm   5.0 km/h 98% 0.0 mm
02:17 2.3 °C 3.0 °C 1008.0 hPa Calm   5.0 km/h 98% 0.0 mm
02:22 2.3 °C 3.0 °C 1008.0 hPa Calm   4.7 km/h 98% 0.3 mm
02:27 2.4 °C 3.0 °C 1008.0 hPa Calm     98% 0.3 mm
02:32 2.5 °C 3.0 °C 1009.0 hPa Calm     98% 0.3 mm
02:37 2.5 °C 3.0 °C 1009.0 hPa Calm     98% 0.3 mm
02:42 2.6 °C 3.0 °C 1009.0 hPa Calm     98% 0.3 mm
02:48 2.6 °C 3.0 °C 1009.0 hPa WNW 2.6 km/h 4.3 km/h 98% 0.3 mm
02:53 2.7 °C 3.0 °C 1009.0 hPa WNW 5.0 km/h 7.6 km/h 98% 0.3 mm
02:58 2.7 °C 3.0 °C 1009.0 hPa Calm   7.6 km/h 98% 0.3 mm
03:03 2.8 °C 3.0 °C 1009.0 hPa Calm   3.2 km/h 98% 0.3 mm
03:08 2.8 °C 3.0 °C 1009.0 hPa West 3.5 km/h 3.5 km/h 98% 0.3 mm
03:13 2.8 °C 3.0 °C 1009.0 hPa West 1.8 km/h 3.5 km/h 98% 0.5 mm
03:18 2.9 °C 3.0 °C 1009.0 hPa West 4.0 km/h 5.0 km/h 98% 0.8 mm
03:23 3.0 °C 3.0 °C 1009.0 hPa Calm   5.0 km/h 98% 0.5 mm
03:28 3.0 °C 3.0 °C 1009.0 hPa Calm   4.7 km/h 98% 0.5 mm
03:33 3.0 °C 3.0 °C 1009.0 hPa Calm     98% 0.5 mm
03:38 2.9 °C 3.0 °C 1009.0 hPa Calm     98% 0.5 mm
03:43 2.9 °C 3.0 °C 1009.0 hPa Calm     98% 0.5 mm
03:48 2.9 °C 3.0 °C 1009.0 hPa Calm     98% 0.5 mm
03:53 2.8 °C 3.0 °C 1009.0 hPa Calm     98% 0.5 mm
03:58 2.8 °C 3.0 °C 1009.0 hPa Calm     98% 0.5 mm
04:03 2.7 °C 3.0 °C 1009.0 hPa Calm     98% 0.8 mm
04:08 2.7 °C 3.0 °C 1009.0 hPa Calm     98% 0.8 mm
04:13 2.7 °C 3.0 °C 1009.0 hPa Calm     98% 0.3 mm
04:18 2.7 °C 3.0 °C 1009.0 hPa Calm     98% 0.3 mm
04:23 2.6 °C 3.0 °C 1009.0 hPa Calm   3.5 km/h 98% 0.3 mm
04:28 2.6 °C 3.0 °C 1008.0 hPa Calm   3.5 km/h 98% 0.3 mm
04:33 2.4 °C 3.0 °C 1008.0 hPa Calm     98% 0.3 mm
04:38 2.3 °C 3.0 °C 1008.0 hPa Calm     98% 0.3 mm
04:43 2.1 °C 2.0 °C 1007.0 hPa Calm     98% 0.3 mm
04:48 2.0 °C 2.0 °C 1007.0 hPa Calm     98% 0.3 mm
04:53 2.0 °C 2.0 °C 1007.0 hPa Calm     98% 0.3 mm
04:58 2.0 °C 2.0 °C 1007.0 hPa Calm   2.1 km/h 98% 0.3 mm
05:03 2.1 °C 2.0 °C 1007.0 hPa Calm   2.1 km/h 98% 0.0 mm
05:08 2.1 °C 2.0 °C 1007.0 hPa Calm     98% 0.0 mm
05:13 2.1 °C 2.0 °C 1007.0 hPa Calm     98% 0.0 mm
05:18 2.2 °C 2.0 °C 1007.0 hPa Calm     98% 0.0 mm
05:23 2.2 °C 2.0 °C 1007.0 hPa Calm     98% 0.0 mm
05:28 2.2 °C 2.0 °C 1007.0 hPa Calm     98% 0.0 mm
05:33 2.3 °C 3.0 °C 1007.0 hPa Calm     98% 0.0 mm
05:39 2.3 °C 3.0 °C 1007.0 hPa Calm     98% 0.0 mm
05:44 2.3 °C 3.0 °C 1007.0 hPa Calm     98% 0.0 mm
05:49 2.3 °C 3.0 °C 1007.0 hPa Calm     98% 0.0 mm
05:54 2.3 °C 3.0 °C 1007.0 hPa Calm     98% 0.0 mm
05:59 2.3 °C 3.0 °C 1007.0 hPa Calm     98% 0.0 mm
06:04 2.4 °C 3.0 °C 1007.0 hPa Calm     98% 0.0 mm
06:09 2.5 °C 3.0 °C 1007.0 hPa Calm     98% 0.0 mm
06:14 2.6 °C 3.0 °C 1007.0 hPa Calm   4.3 km/h 98% 0.0 mm
06:19 2.6 °C 3.0 °C 1007.0 hPa Calm   4.3 km/h 98% 0.0 mm
06:24 2.7 °C 3.0 °C 1007.0 hPa Calm     98% 0.0 mm
06:29 2.7 °C 3.0 °C 1006.0 hPa Calm     98% 0.0 mm
06:34 2.7 °C 3.0 °C 1006.0 hPa Calm     98% 0.0 mm
06:39 2.7 °C 3.0 °C 1006.0 hPa Calm     98% 0.0 mm
06:44 2.8 °C 3.0 °C 1007.0 hPa Calm     98% 0.0 mm
06:49 2.8 °C 3.0 °C 1007.0 hPa Calm     98% 0.0 mm
06:54 2.8 °C 3.0 °C 1007.0 hPa Calm     98% 0.0 mm
06:59 2.8 °C 3.0 °C 1007.0 hPa Calm     98% 0.0 mm
07:05 2.9 °C 3.0 °C 1007.0 hPa Calm     98% 0.0 mm
07:10 2.9 °C 3.0 °C 1007.0 hPa Calm     98% 0.0 mm
07:15 2.9 °C 3.0 °C 1006.0 hPa Calm     98% 0.0 mm
07:20 2.9 °C 3.0 °C 1006.0 hPa Calm     98% 0.0 mm
07:25 3.0 °C 3.0 °C 1006.0 hPa Calm     98% 0.0 mm
07:30 3.0 °C 3.0 °C 1006.0 hPa Calm   4.7 km/h 98% 0.0 mm
07:35 3.0 °C 3.0 °C 1006.0 hPa Calm   4.7 km/h 98% 0.0 mm
07:40 3.0 °C 3.0 °C 1006.0 hPa Calm   1.4 km/h 98% 0.0 mm
07:45 2.9 °C 3.0 °C 1006.0 hPa Calm     98% 0.0 mm
07:50 2.8 °C 3.0 °C 1006.0 hPa Calm     98% 0.0 mm
07:55 2.9 °C 3.0 °C 1006.0 hPa Calm     98% 0.0 mm
08:00 2.9 °C 3.0 °C 1007.0 hPa Calm     98% 0.0 mm
08:05 2.9 °C 3.0 °C 1007.0 hPa Calm     98% 0.0 mm
08:10 2.9 °C 3.0 °C 1007.0 hPa Calm     98% 0.0 mm
08:15 2.9 °C 3.0 °C 1007.0 hPa Calm     98% 0.0 mm
08:20 3.0 °C 3.0 °C 1007.0 hPa Calm     98% 0.0 mm
08:25 3.0 °C 3.0 °C 1007.0 hPa Calm     98% 0.0 mm
08:30 3.0 °C 3.0 °C 1007.0 hPa Calm     98% 0.0 mm
08:35 3.0 °C 3.0 °C 1007.0 hPa Calm     98% 0.0 mm
08:40 3.0 °C 3.0 °C 1007.0 hPa Calm     98% 0.0 mm
08:45 3.0 °C 3.0 °C 1007.0 hPa Calm   4.3 km/h 98% 0.0 mm
08:50 3.0 °C 3.0 °C 1007.0 hPa Calm   4.3 km/h 98% 0.0 mm
08:55 3.0 °C 3.0 °C 1007.0 hPa Calm     98% 0.0 mm
09:00 3.0 °C 3.0 °C 1007.0 hPa Calm   1.4 km/h 98% 0.0 mm
09:06 3.0 °C 3.0 °C 1007.0 hPa Calm   1.4 km/h 98% 0.0 mm
09:11 3.0 °C 3.0 °C 1007.0 hPa Calm     98% 0.0 mm
09:16 3.1 °C 3.0 °C 1007.0 hPa Calm     98% 0.0 mm
09:21 3.1 °C 3.0 °C 1007.0 hPa Calm     98% 0.0 mm
09:26 3.1 °C 3.0 °C 1007.0 hPa Calm     98% 0.0 mm
09:31 3.1 °C 3.0 °C 1006.0 hPa Calm     98% 0.0 mm
09:36 3.1 °C 3.0 °C 1006.0 hPa Calm     98% 0.0 mm
09:41 3.2 °C 3.0 °C 1006.0 hPa Calm     98% 0.0 mm
09:46 3.3 °C 3.0 °C 1006.0 hPa Calm     98% 0.0 mm
09:51 3.3 °C 3.0 °C 1006.0 hPa Calm     98% 0.0 mm
09:56 3.4 °C 3.0 °C 1006.0 hPa Calm   7.9 km/h 98% 0.0 mm
10:01 3.5 °C 4.0 °C 1007.0 hPa Calm   7.9 km/h 98% 0.0 mm
10:06 3.5 °C 4.0 °C 1007.0 hPa Calm     98% 0.0 mm
10:11 3.6 °C 4.0 °C 1007.0 hPa Calm   6.4 km/h 98% 0.0 mm
10:17 3.6 °C 4.0 °C 1006.0 hPa Calm   6.4 km/h 98% 0.0 mm
10:22 3.6 °C 4.0 °C 1006.0 hPa Calm   3.2 km/h 98% 0.0 mm
10:27 3.7 °C 4.0 °C 1006.0 hPa Calm   4.7 km/h 98% 0.0 mm
10:32 3.8 °C 4.0 °C 1006.0 hPa Calm   4.7 km/h 98% 0.0 mm
10:37 3.9 °C 4.0 °C 1006.0 hPa Calm   5.8 km/h 98% 0.0 mm
10:42 3.9 °C 4.0 °C 1006.0 hPa WSW 5.8 km/h 8.7 km/h 98% 0.0 mm
10:47 4.0 °C 4.0 °C 1006.0 hPa Calm   8.7 km/h 98% 0.0 mm
10:52 4.1 °C 4.0 °C 1006.0 hPa Calm   6.9 km/h 98% 0.0 mm
10:57 4.2 °C 4.0 °C 1006.0 hPa SSW 2.1 km/h 5.5 km/h 98% 0.0 mm
11:02 4.3 °C 4.0 °C 1006.0 hPa Calm   5.5 km/h 98% 0.0 mm
11:07 4.5 °C 5.0 °C 1006.0 hPa SW 4.3 km/h 5.5 km/h 98% 0.0 mm
11:12 4.6 °C 5.0 °C 1006.0 hPa Calm   6.9 km/h 98% 0.0 mm
11:17 4.7 °C 5.0 °C 1006.0 hPa SSW 5.0 km/h 6.9 km/h 98% 0.0 mm
11:22 4.9 °C 5.0 °C 1006.0 hPa SSW 3.2 km/h 5.5 km/h 98% 0.0 mm
11:27 5.0 °C 5.0 °C 1006.0 hPa Calm   4.7 km/h 98% 0.0 mm
11:32 5.1 °C 5.0 °C 1006.0 hPa SW 4.0 km/h 5.8 km/h 98% 0.0 mm
11:38 5.2 °C 5.0 °C 1006.0 hPa Calm   5.8 km/h 98% 0.0 mm
11:43 5.2 °C 5.0 °C 1006.0 hPa Calm   5.8 km/h 98% 0.0 mm
11:48 5.3 °C 6.0 °C 1005.0 hPa Calm   7.9 km/h 98% 0.0 mm
11:53 5.3 °C 6.0 °C 1005.0 hPa SW 1.4 km/h 7.9 km/h 98% 0.0 mm
11:58 5.4 °C 6.0 °C 1005.0 hPa Calm   6.9 km/h 98% 0.0 mm
12:03 5.4 °C 6.0 °C 1006.0 hPa SW 2.6 km/h 9.3 km/h 98% 0.0 mm
12:08 5.5 °C 6.0 °C 1006.0 hPa Calm   9.3 km/h 98% 0.0 mm
12:13 5.6 °C 6.0 °C 1006.0 hPa WSW 6.4 km/h 9.3 km/h 98% 0.0 mm
12:18 5.7 °C 6.0 °C 1005.0 hPa WSW 9.0 km/h 9.3 km/h 98% 0.0 mm
12:23 5.7 °C 6.0 °C 1005.0 hPa WSW 5.8 km/h 10.1 km/h 98% 0.0 mm
12:28 5.8 °C 6.0 °C 1005.0 hPa Calm   10.1 km/h 98% 0.0 mm
12:33 5.9 °C 6.0 °C 1005.0 hPa WSW 7.6 km/h 9.7 km/h 98% 0.0 mm
12:38 6.0 °C 6.0 °C 1005.0 hPa SW 5.5 km/h 7.6 km/h 98% 0.0 mm
12:43 6.0 °C 6.0 °C 1005.0 hPa SW 6.9 km/h 9.0 km/h 98% 0.0 mm
12:48 6.1 °C 6.0 °C 1005.0 hPa WSW 6.9 km/h 9.0 km/h 98% 0.0 mm
12:53 6.3 °C 6.0 °C 1005.0 hPa SW 3.2 km/h 9.0 km/h 98% 0.0 mm
12:58 6.4 °C 6.0 °C 1005.0 hPa Calm   8.7 km/h 98% 0.0 mm
13:03 6.5 °C 7.0 °C 1005.0 hPa Calm   7.9 km/h 98% 0.0 mm
13:08 6.6 °C 7.0 °C 1005.0 hPa Calm   8.7 km/h 98% 0.0 mm
13:13 6.7 °C 7.0 °C 1005.0 hPa WSW 6.4 km/h 9.0 km/h 98% 0.0 mm
13:18 6.7 °C 7.0 °C 1005.0 hPa WSW 10.5 km/h 10.5 km/h 98% 0.0 mm
13:23 6.6 °C 7.0 °C 1005.0 hPa WSW 9.3 km/h 14.0 km/h 98% 0.0 mm
13:28 6.7 °C 7.0 °C 1003.9 hPa WSW 10.1 km/h 14.8 km/h 98% 0.0 mm
13:33 6.7 °C 7.0 °C 1003.9 hPa SW 10.1 km/h 14.8 km/h 98% 0.0 mm
13:38 6.7 °C 7.0 °C 1003.9 hPa SW 12.6 km/h 12.6 km/h 98% 0.0 mm
13:44 6.6 °C 7.0 °C 1003.9 hPa West 15.4 km/h 15.4 km/h 98% 0.0 mm
13:49 6.4 °C 6.0 °C 1003.9 hPa WSW 12.6 km/h 15.8 km/h 97% 0.0 mm
13:54 6.3 °C 6.0 °C 1003.9 hPa West 10.1 km/h 17.2 km/h 94% 0.0 mm
13:59 6.3 °C 5.0 °C 1003.9 hPa WSW 12.2 km/h 17.2 km/h 92% 0.0 mm
14:04 6.4 °C 5.0 °C 1003.9 hPa West 14.3 km/h 14.3 km/h 91% 0.0 mm
14:09 6.4 °C 5.0 °C 1003.9 hPa Calm   14.3 km/h 91% 0.0 mm
14:14 6.4 °C 5.0 °C 1005.0 hPa WSW 15.8 km/h 15.8 km/h 90% 0.0 mm
14:19 6.4 °C 5.0 °C 1005.0 hPa SW 7.9 km/h 15.8 km/h 90% 0.0 mm
14:24 6.5 °C 5.0 °C 1005.0 hPa SW 10.5 km/h 15.8 km/h 90% 0.0 mm
14:29 6.6 °C 6.0 °C 1005.0 hPa WSW 9.7 km/h 12.6 km/h 91% 0.0 mm
14:34 6.7 °C 5.0 °C 1005.0 hPa WSW 9.3 km/h 11.9 km/h 90% 0.0 mm
14:39 6.7 °C 5.0 °C 1005.0 hPa WSW 9.7 km/h 12.2 km/h 89% 0.0 mm
14:44 6.7 °C 5.0 °C 1005.0 hPa WSW 10.5 km/h 12.2 km/h 89% 0.0 mm
14:49 6.7 °C 5.0 °C 1005.0 hPa WSW 9.7 km/h 13.0 km/h 87% 0.0 mm
14:54 6.7 °C 5.0 °C 1005.0 hPa Calm   13.0 km/h 87% 0.0 mm
14:59 6.7 °C 5.0 °C 1005.0 hPa SSW 5.8 km/h 10.5 km/h 87% 0.0 mm
15:04 6.6 °C 5.0 °C 1005.0 hPa WSW 7.9 km/h 10.8 km/h 87% 0.0 mm
15:09 6.5 °C 5.0 °C 1005.0 hPa SW 13.7 km/h 13.7 km/h 86% 0.0 mm
15:14 6.4 °C 4.0 °C 1005.0 hPa WSW 9.7 km/h 13.7 km/h 86% 0.0 mm
15:19 6.4 °C 4.0 °C 1005.0 hPa Calm   11.9 km/h 86% 0.0 mm
15:25 6.4 °C 4.0 °C 1005.0 hPa Calm   11.9 km/h 86% 0.0 mm
15:30 6.4 °C 4.0 °C 1005.0 hPa WSW 9.7 km/h 10.1 km/h 86% 0.0 mm
15:35 6.4 °C 4.0 °C 1005.0 hPa WSW 9.0 km/h 10.1 km/h 86% 0.0 mm
15:40 6.3 °C 4.0 °C 1005.0 hPa WSW 9.3 km/h 11.9 km/h 86% 0.0 mm
15:45 6.1 °C 4.0 °C 1005.0 hPa WSW 9.3 km/h 11.9 km/h 86% 0.0 mm
15:50 6.0 °C 4.0 °C 1005.0 hPa SW 7.9 km/h 11.9 km/h 86% 0.0 mm
15:55 6.0 °C 4.0 °C 1005.0 hPa Calm   10.5 km/h 87% 0.0 mm
16:00 5.8 °C 4.0 °C 1005.0 hPa WSW 4.3 km/h 9.0 km/h 87% 0.0 mm
16:05 5.7 °C 4.0 °C 1005.0 hPa Calm   9.3 km/h 87% 0.0 mm
16:10 5.6 °C 4.0 °C 1005.0 hPa Calm   9.3 km/h 87% 0.0 mm
16:15 5.6 °C 4.0 °C 1005.0 hPa Calm   9.0 km/h 87% 0.0 mm
16:20 5.5 °C 4.0 °C 1005.0 hPa Calm   7.6 km/h 87% 0.0 mm
16:26 5.4 °C 4.0 °C 1005.0 hPa Calm   4.0 km/h 87% 0.0 mm
16:31 5.4 °C 4.0 °C 1005.0 hPa Calm   4.0 km/h 88% 0.0 mm
16:36 5.4 °C 4.0 °C 1005.0 hPa Calm   1.4 km/h 88% 0.0 mm
16:41 5.4 °C 4.0 °C 1005.0 hPa Calm     88% 0.0 mm
16:46 5.4 °C 4.0 °C 1005.0 hPa Calm     88% 0.0 mm
16:51 5.4 °C 4.0 °C 1005.0 hPa Calm     88% 0.0 mm
16:56 5.4 °C 4.0 °C 1005.0 hPa Calm     87% 0.0 mm
17:01 5.3 °C 4.0 °C 1005.0 hPa Calm     87% 0.0 mm
17:06 5.3 °C 4.0 °C 1005.0 hPa Calm     87% 0.0 mm
17:11 5.2 °C 3.0 °C 1005.0 hPa Calm     87% 0.0 mm
17:16 5.1 °C 3.0 °C 1005.0 hPa Calm     87% 0.0 mm
17:21 5.1 °C 3.0 °C 1005.0 hPa Calm   1.4 km/h 87% 0.0 mm
17:26 5.0 °C 3.0 °C 1005.0 hPa Calm   1.4 km/h 88% 0.0 mm
17:32 4.9 °C 3.0 °C 1005.0 hPa Calm     89% 0.0 mm
17:37 4.8 °C 3.0 °C 1005.0 hPa Calm     89% 0.0 mm
17:42 4.8 °C 3.0 °C 1005.0 hPa Calm     89% 0.0 mm
17:47 4.7 °C 3.0 °C 1005.0 hPa Calm     90% 0.0 mm
17:52 4.7 °C 3.0 °C 1005.0 hPa Calm     90% 0.0 mm
17:57 4.7 °C 3.0 °C 1005.0 hPa Calm   1.8 km/h 91% 0.0 mm
18:02 4.6 °C 3.0 °C 1005.0 hPa Calm   1.8 km/h 91% 0.0 mm
18:07 4.6 °C 3.0 °C 1005.0 hPa Calm     92% 0.3 mm
18:12 4.6 °C 3.0 °C 1005.0 hPa Calm     92% 0.3 mm
18:17 4.6 °C 3.0 °C 1005.0 hPa Calm     92% 0.3 mm
18:22 4.5 °C 4.0 °C 1005.0 hPa Calm     93% 0.3 mm
18:27 4.5 °C 4.0 °C 1005.0 hPa Calm     93% 0.3 mm
18:32 4.4 °C 3.0 °C 1005.0 hPa Calm   1.4 km/h 93% 0.3 mm
18:37 4.4 °C 3.0 °C 1005.0 hPa Calm   1.4 km/h 93% 0.3 mm
18:42 4.4 °C 3.0 °C 1005.0 hPa Calm     94% 0.3 mm
18:47 4.3 °C 3.0 °C 1005.0 hPa Calm     94% 0.3 mm
18:52 4.3 °C 3.0 °C 1005.0 hPa Calm   4.0 km/h 94% 0.3 mm
18:57 4.2 °C 4.0 °C 1005.0 hPa NNE 5.0 km/h 6.9 km/h 95% 0.3 mm
19:02 4.2 °C 4.0 °C 1005.0 hPa NNE 5.0 km/h 6.9 km/h 95% 0.3 mm
19:07 4.1 °C 3.0 °C 1005.0 hPa Calm   6.9 km/h 95% 0.3 mm
19:12 4.1 °C 4.0 °C 1005.0 hPa Calm   7.2 km/h 96% 0.3 mm
19:18 4.1 °C 4.0 °C 1005.0 hPa Calm   7.2 km/h 96% 0.3 mm
19:23 4.0 °C 4.0 °C 1005.0 hPa Calm   6.9 km/h 96% 0.3 mm
19:28 3.9 °C 4.0 °C 1005.0 hPa Calm   6.9 km/h 96% 0.3 mm
19:33 3.9 °C 4.0 °C 1006.0 hPa Calm   3.2 km/h 96% 0.3 mm
19:38 3.8 °C 3.0 °C 1006.0 hPa Calm   3.2 km/h 97% 0.3 mm
19:43 3.8 °C 3.0 °C 1006.0 hPa Calm   1.8 km/h 97% 0.3 mm
19:48 3.8 °C 3.0 °C 1006.0 hPa Calm     97% 0.3 mm
19:53 3.8 °C 3.0 °C 1006.0 hPa Calm     97% 0.3 mm
19:58 3.8 °C 4.0 °C 1006.0 hPa Calm     98% 0.8 mm
20:03 3.8 °C 4.0 °C 1006.0 hPa Calm     98% 0.8 mm
20:08 3.7 °C 4.0 °C 1006.0 hPa ENE 7.9 km/h 7.9 km/h 98% 0.3 mm
20:13 3.7 °C 4.0 °C 1006.0 hPa Calm   9.3 km/h 98% 0.3 mm
20:18 3.7 °C 4.0 °C 1006.0 hPa Calm   9.3 km/h 98% 0.3 mm
20:23 3.7 °C 4.0 °C 1006.0 hPa Calm   5.0 km/h 98% 0.3 mm
20:28 3.7 °C 4.0 °C 1006.0 hPa Calm   5.8 km/h 98% 0.3 mm
20:33 3.7 °C 4.0 °C 1006.0 hPa Calm   5.8 km/h 98% 0.3 mm
20:38 3.7 °C 4.0 °C 1006.0 hPa NE 3.2 km/h 4.7 km/h 98% 0.3 mm
20:43 3.6 °C 4.0 °C 1007.0 hPa Calm   6.1 km/h 98% 0.8 mm
20:49 3.6 °C 4.0 °C 1007.0 hPa Calm   6.1 km/h 98% 0.8 mm
20:54 3.6 °C 4.0 °C 1007.0 hPa Calm     98% 0.8 mm
20:59 3.5 °C 4.0 °C 1007.0 hPa Calm   5.8 km/h 98% 0.3 mm
21:04 3.5 °C 4.0 °C 1007.0 hPa Calm   5.8 km/h 98% 0.3 mm
21:09 3.5 °C 4.0 °C 1007.0 hPa Calm     98% 0.3 mm
21:14 3.5 °C 4.0 °C 1007.0 hPa Calm     98% 0.3 mm
21:19 3.4 °C 3.0 °C 1007.0 hPa ENE 4.0 km/h 4.0 km/h 98% 0.3 mm
21:24 3.4 °C 3.0 °C 1007.0 hPa Calm   4.0 km/h 98% 0.3 mm
21:29 3.4 °C 3.0 °C 1007.0 hPa Calm     98% 0.3 mm
21:34 3.4 °C 3.0 °C 1007.0 hPa Calm     98% 0.3 mm
21:39 3.4 °C 3.0 °C 1007.0 hPa Calm     98% 0.3 mm
21:44 3.3 °C 3.0 °C 1008.0 hPa Calm     98% 0.0 mm
21:49 3.3 °C 3.0 °C 1008.0 hPa Calm     98% 0.0 mm
21:54 3.4 °C 3.0 °C 1008.0 hPa Calm     98% 0.0 mm
21:59 3.4 °C 3.0 °C 1008.0 hPa Calm     98% 0.0 mm
22:04 3.4 °C 3.0 °C 1007.0 hPa Calm     98% 0.0 mm
22:09 3.3 °C 3.0 °C 1007.0 hPa Calm     98% 0.0 mm
22:14 3.3 °C 3.0 °C 1007.0 hPa Calm     98% 0.0 mm
22:19 3.2 °C 3.0 °C 1007.0 hPa Calm     98% 0.0 mm
22:24 3.1 °C 3.0 °C 1007.0 hPa Calm     98% 0.0 mm
22:29 3.0 °C 3.0 °C 1008.0 hPa Calm     98% 0.0 mm
22:34 3.0 °C 3.0 °C 1008.0 hPa Calm     98% 0.0 mm
22:39 2.9 °C 3.0 °C 1008.0 hPa Calm     98% 0.0 mm
22:44 2.8 °C 3.0 °C 1008.0 hPa Calm   2.1 km/h 98% 0.0 mm
22:49 2.7 °C 3.0 °C 1008.0 hPa North 1.8 km/h 3.2 km/h 98% 0.0 mm
22:54 2.7 °C 3.0 °C 1008.0 hPa Calm   3.2 km/h 98% 0.0 mm
22:59 2.6 °C 3.0 °C 1008.0 hPa Calm     98% 0.0 mm
23:05 2.5 °C 3.0 °C 1008.0 hPa Calm     98% 0.0 mm
23:10 2.4 °C 3.0 °C 1008.0 hPa Calm     98% 0.0 mm
23:15 2.4 °C 3.0 °C 1009.0 hPa Calm     98% 0.0 mm
23:20 2.3 °C 3.0 °C 1009.0 hPa Calm     98% 0.0 mm
23:25 2.3 °C 3.0 °C 1009.0 hPa Calm     98% 0.0 mm
23:30 2.3 °C 3.0 °C 1009.0 hPa Calm     98% 0.0 mm
23:35 2.2 °C 2.0 °C 1009.0 hPa Calm     98% 0.0 mm
23:40 2.2 °C 2.0 °C 1009.0 hPa Calm     98% 0.0 mm
23:45 2.1 °C 2.0 °C 1009.0 hPa Calm     98% 0.0 mm
23:50 2.1 °C 2.0 °C 1009.0 hPa Calm   3.2 km/h 98% 0.0 mm
23:55 2.0 °C 2.0 °C 1009.0 hPa Calm   5.0 km/h 98% 0.0 mm
Données Historique de Météo Turbie

Mise a jour : 24/05/2018 10:06:21
Généré par Cumulus 1.9.4 (1099)